Crescent City, CA

8:39 AM PDT on July 23, 2016 (GMT -0700)
McNamara

Weather History for KCEC - March, 2014

Change the Weather History Date:

Sunday, March 9, 2014

  Actual Average Record
Temperature  
Mean Temperature 56 °F 48 °F  
Max Temperature 59 °F 55 °F 67 °F (1996)
Min Temperature 52 °F 42 °F 31 °F (1951)
Degree Days  
Heating Degree Days 10 17  
Month to date heating degree days 153  
Since 1 July heating degree days 3326  
Cooling Degree Days 0 0  
Month to date cooling degree days 0  
Year to date cooling degree days 0  
Growing Degree Days 6 (Base 50)    
Moisture  
Dew Point 53 °F    
Average Humidity 97    
Maximum Humidity 100    
Minimum Humidity 93    
Precipitation  
Precipitation 0.72 in 0.22 in 2.30 in (1966)
Month to date precipitation 2.88 2.10  
Year to date precipitation 14.52 21.37  
Since 1 July precipitation 23.51  
Snow  
Snow 0.00 in - - ()
Month to date snowfall 0.0  
Since 1 July snowfall 0.0  
Snow Depth -    
Sea Level Pressure  
Sea Level Pressure 30.10 in    
Wind  
Wind Speed 14 mph (South)    
Max Wind Speed 24 mph    
Max Gust Speed 34 mph    
Visibility 3 miles    
Events Rain    
T = Trace of Precipitation, MM = Missing Value Source: NWS Daily Summary

Daily Weather History Graph

Daily Weather History Graph

Search for Another Location

Airport or City:

Trip Planner

Search our weather history database for the weather conditions in past years. The results will help you decide how hot, cold, wet, or windy it might be!

Date:

Astronomy

Mar. 09, 2014 Rise Set
Actual Time 7:38 AM PDT 7:16 PM PDT
Civil Twilight 7:10 AM PDT 7:44 PM PDT
Nautical Twilight 6:38 AM PDT 8:16 PM PDT
Astronomical Twilight 6:06 AM PDT 8:49 PM PDT
Moon 1:10 PM PDT (3/9) 3:12 AM PDT (3/9)
Length of Visible Light 12h 33m
Length of Day
11h 38m
First Quarter, 62% of the Moon is Illuminated
Mar 9
First Quarter
Mar 16
Full
Mar 23
Last Quarter
Mar 30
New
Apr 7
First Quarter

Hourly Weather History & Observations

Time (PDT) Temp. Dew Point Humidity Pressure Visibility Wind Dir Wind Speed Gust Speed Precip Events Conditions
12:26 AM 59.0 °F 55.9 °F 90% 30.06 in 6.0 mi SSE 19.6 mph 33.4 mph 0.01 in Rain Rain
12:56 AM 57.9 °F 55.0 °F 90% 30.07 in 5.0 mi SSE 12.7 mph 23.0 mph 0.02 in Rain Light Rain
1:24 AM 55.9 °F 54.0 °F 93% 30.09 in 1.8 mi SW 11.5 mph - 0.02 in Rain Heavy Rain
1:41 AM 55.0 °F 54.0 °F 96% 30.09 in 1.8 mi SSW 11.5 mph - 0.03 in Rain Heavy Rain
1:48 AM 55.0 °F 54.0 °F 96% 30.09 in 2.0 mi SSW 9.2 mph - 0.03 in Rain Rain
1:56 AM 55.0 °F 54.0 °F 96% 30.10 in 2.5 mi SSW 10.4 mph - 0.03 in Rain Rain
3:12 AM 54.0 °F 53.1 °F 97% 30.09 in 3.0 mi SSW 10.4 mph - 0.01 in Rain Rain
3:28 AM 54.0 °F 53.1 °F 97% 30.09 in 3.0 mi SSW 13.8 mph - 0.02 in Rain Rain
3:38 AM 54.0 °F 53.1 °F 97% 30.09 in 4.0 mi South 13.8 mph - 0.03 in Rain Rain
3:56 AM 54.0 °F 53.1 °F 97% 30.09 in 4.0 mi South 16.1 mph 21.9 mph 0.04 in Rain Rain
4:14 AM 54.0 °F 52.0 °F 93% 30.09 in 3.0 mi South 15.0 mph - N/A Rain Rain
4:27 AM 53.1 °F 52.0 °F 96% 30.09 in 2.5 mi South 15.0 mph - N/A Rain Rain
4:34 AM 54.0 °F 52.0 °F 93% 30.09 in 4.0 mi South 17.3 mph - N/A Rain Rain
4:56 AM 53.1 °F 52.0 °F 96% 30.09 in 6.0 mi SSE 12.7 mph - N/A Rain Rain
5:56 AM 53.1 °F 51.1 °F 93% 30.09 in 5.0 mi SSE 18.4 mph 27.6 mph 0.04 in Rain Light Rain
6:15 AM 53.1 °F 52.0 °F 96% 30.09 in 2.5 mi SSE 16.1 mph - 0.01 in Rain Heavy Rain
6:22 AM 53.1 °F 52.0 °F 96% 30.09 in 2.5 mi SSE 17.3 mph - 0.02 in Rain Light Rain
6:31 AM 53.1 °F 51.1 °F 93% 30.09 in 1.2 mi SSE 21.9 mph 28.8 mph 0.03 in Rain Heavy Rain
6:43 AM 53.1 °F 52.0 °F 96% 30.09 in 2.0 mi SSE 18.4 mph 29.9 mph 0.03 in Rain Heavy Rain
6:53 AM 53.6 °F 51.8 °F 94% 30.09 in 2.0 mi South 20.7 mph - 0.04 in Rain Heavy Rain
6:56 AM 53.1 °F 52.0 °F 96% 30.09 in 2.5 mi SSE 19.6 mph 26.5 mph 0.04 in Rain Heavy Rain
7:05 AM 53.1 °F 52.0 °F 96% 30.09 in 3.0 mi South 19.6 mph - 0.01 in Rain Heavy Rain
7:15 AM 53.1 °F 51.1 °F 93% 30.09 in 2.5 mi SSE 18.4 mph - 0.02 in Rain Heavy Rain
7:24 AM 53.1 °F 51.1 °F 93% 30.09 in 3.0 mi South 19.6 mph - 0.03 in Rain Rain
7:47 AM 52.0 °F 52.0 °F 100% 30.09 in 3.0 mi SSE 17.3 mph - 0.04 in Rain Rain
7:56 AM 52.0 °F 52.0 °F 100% 30.10 in 3.0 mi South 17.3 mph - 0.05 in Rain Light Rain
8:03 AM 53.1 °F 52.0 °F 96% 30.10 in 2.0 mi South 17.3 mph - 0.01 in Rain Rain
8:52 AM 53.6 °F 53.6 °F 100% 30.10 in 1.8 mi SSE 11.5 mph - 0.05 in Rain Rain
8:56 AM 53.1 °F 53.1 °F 100% 30.11 in 2.0 mi SSE 10.4 mph - 0.06 in Rain Light Rain
9:23 AM 53.1 °F 53.1 °F 100% 30.11 in 3.0 mi SSE 10.4 mph - 0.02 in Rain Light Rain
9:32 AM 54.0 °F 53.1 °F 97% 30.11 in 2.0 mi SSE 12.7 mph - 0.03 in Rain Rain
9:49 AM 54.0 °F 53.1 °F 97% 30.11 in 4.0 mi SSE 11.5 mph - 0.05 in Rain Light Rain
9:56 AM 54.0 °F 54.0 °F 100% 30.12 in 4.0 mi SSE 11.5 mph - 0.05 in Rain Light Rain
10:03 AM 54.0 °F 54.0 °F 100% 30.12 in 4.0 mi SSE 11.5 mph - 0.01 in Rain Light Rain
10:48 AM 55.0 °F 54.0 °F 96% 30.12 in 4.0 mi SSE 11.5 mph - 0.05 in   Overcast
10:56 AM 55.0 °F 54.0 °F 96% 30.12 in 4.0 mi SSE 10.4 mph - 0.06 in Rain Light Rain
11:10 AM 55.0 °F 54.0 °F 96% 30.11 in 2.0 mi SSE 9.2 mph - 0.01 in   Overcast
11:19 AM 54.0 °F 54.0 °F 100% 30.11 in 1.5 mi South 9.2 mph - 0.02 in Rain Light Rain
11:47 AM 54.0 °F 54.0 °F 100% 30.12 in 1.2 mi SSE 10.4 mph - 0.04 in Rain Light Rain
11:56 AM 54.0 °F 54.0 °F 100% 30.12 in 1.0 mi South 9.2 mph - 0.05 in Rain Light Rain
12:48 PM 54.0 °F 54.0 °F 100% 30.12 in 2.0 mi South 11.5 mph - 0.05 in Rain Light Rain
12:56 PM 54.0 °F 54.0 °F 100% 30.12 in 4.0 mi SSE 10.4 mph - 0.05 in Rain Light Rain
1:56 PM 54.0 °F 53.1 °F 97% 30.11 in 6.0 mi South 10.4 mph - 0.06 in   Overcast
2:40 PM 54.0 °F 53.1 °F 97% 30.10 in 2.0 mi South 8.1 mph - 0.02 in Rain Light Rain
2:56 PM 54.0 °F 53.1 °F 97% 30.10 in 2.0 mi South 10.4 mph - 0.03 in   Overcast
3:19 PM 54.0 °F 53.1 °F 97% 30.09 in 3.0 mi SSE 9.2 mph - 0.02 in Rain Light Rain
3:47 PM 53.1 °F 53.1 °F 100% 30.08 in 6.0 mi SSE 8.1 mph - 0.04 in   Overcast
3:56 PM 53.1 °F 53.1 °F 100% 30.09 in 6.0 mi SSE 6.9 mph - 0.05 in Rain Light Rain
4:15 PM 53.1 °F 53.1 °F 100% 30.08 in 1.8 mi South 5.8 mph - 0.02 in Rain Light Rain
4:32 PM 53.1 °F 53.1 °F 100% 30.08 in 1.5 mi South 8.1 mph - 0.03 in Rain Light Rain
4:49 PM 53.1 °F 53.1 °F 100% 30.09 in 1.2 mi South 8.1 mph - 0.05 in Rain Heavy Rain
4:56 PM 53.1 °F 53.1 °F 100% 30.09 in 1.8 mi South 8.1 mph - 0.05 in Rain Rain
5:03 PM 53.1 °F 52.0 °F 96% 30.09 in 2.0 mi South 6.9 mph - 0.01 in Rain Rain
5:11 PM 53.1 °F 52.0 °F 96% 30.08 in 1.8 mi South 6.9 mph - 0.02 in Rain Rain
5:22 PM 53.1 °F 52.0 °F 96% 30.08 in 2.5 mi SSE 8.1 mph - 0.03 in Rain Rain
5:30 PM 53.1 °F 52.0 °F 96% 30.08 in 3.0 mi SSE 6.9 mph - 0.03 in Rain Rain
5:54 PM 53.6 °F 51.8 °F 94% 30.08 in 2.5 mi SSE 10.4 mph - 0.05 in Rain Rain
5:56 PM 53.1 °F 52.0 °F 96% 30.08 in 3.0 mi South 8.1 mph - 0.05 in Rain Rain
6:12 PM 53.1 °F 52.0 °F 96% 30.08 in 2.0 mi South 9.2 mph - 0.02 in Rain Rain
6:56 PM 53.1 °F 52.0 °F 96% 30.08 in 2.5 mi South 5.8 mph - 0.06 in Rain Rain
7:04 PM 53.1 °F 52.0 °F 96% 30.08 in 4.0 mi South 5.8 mph - 0.00 in Rain Rain
7:38 PM 53.1 °F 52.0 °F 96% 30.09 in 2.5 mi SSW 4.6 mph - N/A Rain Rain
7:56 PM 53.1 °F 52.0 °F 96% 30.09 in 3.0 mi SSW 4.6 mph - N/A Rain Rain
8:06 PM 52.0 °F 52.0 °F 100% 30.09 in 2.5 mi SW 3.5 mph - 0.01 in Rain Rain
8:43 PM 53.1 °F 52.0 °F 96% 30.11 in 3.0 mi Calm Calm - 0.04 in Rain Rain
8:56 PM 52.0 °F 51.1 °F 97% 30.11 in 4.0 mi East 3.5 mph - 0.05 in Rain Light Rain
9:28 PM 52.0 °F 52.0 °F 100% 30.12 in 5.0 mi Calm Calm - 0.03 in Rain Rain
9:56 PM 52.0 °F 52.0 °F 100% 30.12 in 5.0 mi Calm Calm - 0.05 in Rain Light Rain
10:16 PM 52.0 °F 51.1 °F 97% 30.12 in 5.0 mi South 3.5 mph - 0.02 in Rain Light Rain
10:22 PM 52.0 °F 52.0 °F 100% 30.12 in 2.5 mi SSW 4.6 mph - 0.03 in Rain Light Rain
10:35 PM 52.0 °F 52.0 °F 100% 30.13 in 3.0 mi South 3.5 mph - 0.04 in Rain Rain
10:49 PM 52.0 °F 51.1 °F 97% 30.13 in 3.0 mi South 5.8 mph - 0.05 in Rain Rain
10:56 PM 52.0 °F 51.1 °F 97% 30.14 in 5.0 mi South 5.8 mph - 0.05 in Rain Light Rain
11:56 PM 52.0 °F 51.1 °F 97% 30.14 in 8.0 mi SSE 9.2 mph - 0.06 in Rain Light Rain
12:11 AM 52.0 °F 51.1 °F 97% 30.13 in 2.5 mi SSE 8.1 mph - 0.01 in Rain Heavy Rain
12:16 AM 52.0 °F 51.1 °F 97% 30.14 in 3.0 mi SSE 6.9 mph - 0.01 in Rain Light Rain
12:30 AM 52.0 °F 51.1 °F 97% 30.13 in 2.5 mi South 8.1 mph - 0.02 in Rain Rain
12:56 AM 52.0 °F 51.1 °F 97% 30.14 in 5.0 mi SW 6.9 mph - 0.05 in Rain Light Rain